Retour au catalogue

ONEWEB-0013

ActifCommunicationsPO
NORAD 45131·PAYLOAD·🇬🇧 United Kingdom

Lancé Feb 6, 2020 depuis Baikonur Cosmodrome

Loading…

Prochains Passages (prochaines 24 heures)

TLE

FraisSource: CelesTrak SupGP

Époque: Sep 14, 2026, 19:40 UTC

1 45131C 20008A   26257.81963376  .00001657  00000+0  48160-2 0  2575
2 45131  87.8565  34.7302 0002636 107.7977 345.9195 13.09462083    12

Suivez ONEWEB-0013 en temps réel avec AllMySat

Download on the App Store